This demonstration page uses our WeatherBlox Daily Observations layout. Learn more.

Left ArrowRight Arrow

41.55636, -103.73856

Hourly Observations for May 19, 2019

Temp ( °F °C ) Dew Point ( °F °C ) Humidity (%) Winds ( mph kmh ) Pressure ( in mb ) Visibility ( mi km ) Precip ( " mm )
6:58 pm 18:58 undefined 40 4.7 33 0.6 75 75 N 20 31 29.85 1011 10 16 0.00 0.00
7:58 pm 19:58 undefined 38 3.6 32 0.2 79 79 N 13 20 29.89 1012 10 16 0.00 0.00
8:59 pm 20:59 undefined 36 2.4 31 -0.3 83 83 N 15 24 29.89 1012 10 16 0.00 0.00
9:58 pm 21:58 undefined 36 2 31 -0.5 84 84 NNW 13 20 29.89 1012 10 16 0.00 0.00
10:58 pm 22:58 undefined 34 1 29 -1.4 84 84 NW 16 26 29.91 1013 10 16 0.00 0.00
11:58 pm 23:58 undefined 33 0.7 29 -1.9 83 83 NNW 16 26 29.92 1013 10 16 0.00 0.00
12:58 am 00:58 undefined 32 -0.1 28 -2.1 87 87 NNW 21 33 29.93 1014 10 16 0.00 0.00
1:58 am 01:58 undefined 32 -0.1 28 -2.2 86 86 NNW 21 33 29.95 1014 10 16 0.00 0.00
2:58 am 02:58 undefined 31 -0.3 26 -3.1 82 82 N 23 37 29.96 1015 10 16 0.00 0.00
3:58 am 03:58 undefined 31 -0.5 26 -3.3 82 82 NNW 17 28 30.00 1016 10 16 0.00 0.00
4:58 am 04:58 undefined 31 -0.6 26 -3.3 82 82 N 17 28 30.00 1016 10 16 0.00 0.00
5:58 am 05:58 undefined 31 -0.7 26 -3.3 83 83 NNW 15 24 30.02 1017 10 16 0.00 0.00
6:58 am 06:58 undefined 31 -0.4 26 -3.2 82 82 NNW 17 28 30.04 1017 10 16 0.00 0.00
7:59 am 07:59 undefined 33 0.6 27 -2.8 78 78 N 21 33 30.06 1018 10 16 0.00 0.00
8:58 am 08:58 undefined 34 1.3 27 -3 73 73 N 16 26 30.08 1019 10 16 0.00 0.00
9:59 am 09:59 undefined 35 1.7 28 -2.5 74 74 N 14 22 30.08 1019 10 16 0.00 0.00
10:58 am 10:58 undefined 40 4.2 29 -1.9 65 65 N 10 17 30.06 1018 10 16 0.00 0.00
11:58 am 11:58 undefined 41 4.8 29 -1.8 63 63 N 14 22 30.03 1017 10 16 0.00 0.00
12:58 pm 12:58 undefined 43 6.1 29 -1.6 58 58 NNE 3 6 30.05 1018 10 16 0.00 0.00
1:58 pm 13:58 undefined 44 6.5 29 -1.9 55 55 NE 3 6 30.04 1017 10 16 0.00 0.00
2:58 pm 14:58 undefined 46 7.8 30 -0.9 54 54 NNE 6 9 30.00 1016 10 16 0.00 0.00
3:58 pm 15:58 undefined 45 7 29 -1.5 55 55 Calm 30.01 1016 10 16 0.00 0.00
4:58 pm 16:58 undefined 47 8.1 31 -0.6 55 55 E 14 22 29.97 1015 10 16 0.00 0.00
5:58 pm 17:58 undefined 45 7.2 31 -0.6 58 58 E 16 26 29.99 1016 10 16 0.00 0.00

Powered by AerisWeather